Manteo, NC

6:22 PM EST on December 14, 2017 (GMT -0500)
Dare County Regional

Weather History for KMQI - December, 2012

Change the Weather History Date:

Friday, December 7, 2012

  Actual Average Record
Temperature  
Mean Temperature 54 °F -  
Max Temperature 64 °F 55 °F 75 °F (1998)
Min Temperature 44 °F 43 °F 25 °F (1984)
Degree Days  
Heating Degree Days 11    
Growing Degree Days 4 (Base 50)    
Moisture  
Dew Point 51 °F    
Average Humidity 81    
Maximum Humidity 94    
Minimum Humidity 64    
Precipitation  
Precipitation 0.00 in - - ()
Sea Level Pressure  
Sea Level Pressure 30.12 in    
Wind  
Wind Speed 7 mph (ESE)    
Max Wind Speed 13 mph    
Max Gust Speed 17 mph    
Visibility 10 miles    
Events Rain    
Averages and records for this station are not official NWS values.
T = Trace of Precipitation, MM = Missing Value Source: NWS Daily Summary

Daily Weather History Graph

Daily Weather History Graph

Search for Another Location

Airport or City:

Trip Planner

Search our weather history database for the weather conditions in past years. The results will help you decide how hot, cold, wet, or windy it might be!

Date:

Astronomy

Dec. 07, 2012 Rise Set
Actual Time 7:00 AM EST 4:48 PM EST
Civil Twilight 6:31 AM EST 5:17 PM EST
Nautical Twilight 6:00 AM EST 5:48 PM EST
Astronomical Twilight 5:28 AM EST 6:19 PM EST
Moon 12:27 AM EST (12/7) 12:34 PM EST (12/7)
Length of Visible Light 10h 45m
Length of Day
9h 48m
Last Quarter, 39% of the Moon is Illuminated
Dec 7
Last Quarter
Dec 13
New
Dec 20
First Quarter
Dec 28
Full
Jan 4
Last Quarter

Hourly Weather History & Observations

Time (EST) Temp. Windchill Dew Point Humidity Pressure Visibility Wind Dir Wind Speed Gust Speed Precip Events Conditions
12:15 AM 46.4 °F 43.5 °F 41.0 °F 81% 30.20 in 10.0 mi ENE 5.8 mph - N/A   Unknown
12:35 AM 48.2 °F - 41.0 °F 76% 30.20 in 10.0 mi NE 5.8 mph - N/A   Unknown
12:55 AM 48.2 °F - 42.8 °F 82% 30.20 in 10.0 mi Calm Calm - N/A   Unknown
1:15 AM 44.6 °F - 41.0 °F 87% 30.21 in 10.0 mi Calm Calm - N/A   Unknown
1:35 AM 44.6 °F 43.1 °F 41.0 °F 87% 30.20 in 10.0 mi NE 3.5 mph - N/A   Unknown
1:55 AM 44.6 °F - 42.8 °F 93% 30.21 in 10.0 mi Calm Calm - N/A   Unknown
2:35 AM 46.4 °F 45.2 °F 42.8 °F 87% 30.20 in 10.0 mi NNE 3.5 mph - N/A   Unknown
2:55 AM 44.6 °F 42.2 °F 42.8 °F 93% 30.19 in 10.0 mi NNE 4.6 mph - N/A   Unknown
3:15 AM 48.2 °F - 42.8 °F 82% 30.19 in 10.0 mi NE 3.5 mph - N/A   Unknown
3:35 AM 46.4 °F 42.9 °F 42.8 °F 87% 30.18 in 10.0 mi ENE 6.9 mph - N/A   Unknown
3:55 AM 48.2 °F - 44.6 °F 87% 30.18 in 10.0 mi ENE 6.9 mph - N/A   Unknown
4:15 AM 50.0 °F - 44.6 °F 82% 30.17 in 10.0 mi ENE 6.9 mph - N/A   Unknown
4:35 AM 50.0 °F - 44.6 °F 82% 30.17 in 10.0 mi ENE 9.2 mph - N/A   Unknown
4:55 AM 50.0 °F - 44.6 °F 82% 30.17 in 10.0 mi East 8.1 mph - N/A   Unknown
5:35 AM 51.8 °F - 46.4 °F 82% 30.17 in 10.0 mi East 6.9 mph - N/A   Unknown
5:55 AM 51.8 °F - 46.4 °F 82% 30.17 in 10.0 mi East 4.6 mph - N/A   Unknown
6:15 AM 51.8 °F - 46.4 °F 82% 30.18 in 10.0 mi East 9.2 mph - N/A   Unknown
6:35 AM 53.6 °F - 46.4 °F 77% 30.17 in 10.0 mi East 9.2 mph - N/A   Unknown
6:55 AM 53.6 °F - 48.2 °F 82% 30.17 in 10.0 mi East 9.2 mph - N/A   Unknown
7:15 AM 53.6 °F - 48.2 °F 82% 30.18 in 10.0 mi East 9.2 mph - N/A   Unknown
7:35 AM 53.6 °F - 48.2 °F 82% 30.18 in 10.0 mi East 10.4 mph - N/A   Unknown
7:55 AM 53.6 °F - 48.2 °F 82% 30.18 in 10.0 mi East 9.2 mph - N/A   Unknown
8:15 AM 53.6 °F - 48.2 °F 82% 30.18 in 10.0 mi East 9.2 mph - N/A   Unknown
8:35 AM 55.4 °F - 50.0 °F 82% 30.18 in 10.0 mi East 9.2 mph - N/A   Unknown
9:15 AM 55.4 °F - 50.0 °F 82% 30.18 in 10.0 mi East 11.5 mph - N/A   Unknown
9:35 AM 55.4 °F - 50.0 °F 82% 30.18 in 10.0 mi East 10.4 mph - N/A   Unknown
9:55 AM 57.2 °F - 51.8 °F 82% 30.18 in 10.0 mi ESE 10.4 mph - N/A   Unknown
10:15 AM 59.0 °F - 51.8 °F 77% 30.17 in 10.0 mi ESE 11.5 mph - N/A   Unknown
10:35 AM 60.8 °F - 51.8 °F 72% 30.16 in 10.0 mi ESE 11.5 mph - N/A   Unknown
10:55 AM 60.8 °F - 51.8 °F 72% 30.15 in 10.0 mi ESE 11.5 mph - N/A   Unknown
11:15 AM 60.8 °F - 51.8 °F 72% 30.15 in 10.0 mi ESE 10.4 mph 16.1 mph N/A   Unknown
11:35 AM 62.6 °F - 51.8 °F 68% 30.14 in 10.0 mi ESE 8.1 mph - N/A   Unknown
11:55 AM 60.8 °F - 51.8 °F 72% 30.12 in 10.0 mi ESE 10.4 mph - N/A   Unknown
12:15 PM 60.8 °F - 51.8 °F 72% 30.12 in 10.0 mi ESE 9.2 mph - N/A   Unknown
12:35 PM 60.8 °F - 51.8 °F 72% 30.11 in 10.0 mi ESE 6.9 mph - N/A   Unknown
12:55 PM 62.6 °F - 53.6 °F 72% 30.10 in 10.0 mi ESE 6.9 mph - N/A   Unknown
1:15 PM 64.4 °F - 53.6 °F 68% 30.09 in 10.0 mi ESE 8.1 mph - N/A   Unknown
1:55 PM 64.4 °F - 51.8 °F 64% 30.08 in 10.0 mi ESE 8.1 mph - N/A   Unknown
2:15 PM 64.4 °F - 51.8 °F 64% 30.08 in 10.0 mi SE 9.2 mph - N/A   Unknown
2:35 PM 64.4 °F - 51.8 °F 64% 30.08 in 10.0 mi ESE 8.1 mph - N/A   Unknown
2:55 PM 62.6 °F - 51.8 °F 68% 30.08 in 10.0 mi SE 5.8 mph - N/A   Unknown
3:15 PM 62.6 °F - 51.8 °F 68% 30.07 in 10.0 mi SE 8.1 mph - N/A   Unknown
3:35 PM 62.6 °F - 53.6 °F 72% 30.08 in 10.0 mi SE 5.8 mph - N/A Rain Light Rain
3:55 PM 60.8 °F - 53.6 °F 77% 30.07 in 10.0 mi ESE 5.8 mph - N/A   Unknown
4:15 PM 59.0 °F - 53.6 °F 82% 30.07 in 10.0 mi ESE 6.9 mph - N/A Rain Light Rain
4:35 PM 59.0 °F - 53.6 °F 82% 30.06 in 10.0 mi ESE 6.9 mph - N/A   Unknown
4:55 PM 59.0 °F - 53.6 °F 82% 30.06 in 10.0 mi ESE 5.8 mph - N/A   Unknown
5:35 PM 62.6 °F - 53.6 °F 72% 30.06 in 10.0 mi SE 9.2 mph - N/A   Unknown
5:55 PM 62.6 °F - 55.4 °F 77% 30.06 in 10.0 mi SSE 5.8 mph - N/A   Unknown
6:15 PM 60.8 °F - 55.4 °F 82% 30.06 in 10.0 mi SSE 5.8 mph - N/A   Unknown
6:35 PM 60.8 °F - 55.4 °F 82% 30.06 in 10.0 mi SSE 6.9 mph - N/A   Unknown
6:55 PM 60.8 °F - 55.4 °F 82% 30.07 in 10.0 mi South 11.5 mph 16.1 mph N/A Rain Rain
7:15 PM 60.8 °F - 55.4 °F 82% 30.06 in 7.0 mi SSE 8.1 mph - N/A   Light Drizzle
7:35 PM 60.8 °F - 57.2 °F 88% 30.06 in 10.0 mi SSE 8.1 mph 16.1 mph N/A   Unknown
7:55 PM 62.6 °F - 59.0 °F 88% 30.06 in 10.0 mi SSE 12.7 mph 17.3 mph N/A   Unknown
8:15 PM 60.8 °F - 59.0 °F 94% 30.05 in 10.0 mi SSE 8.1 mph - N/A   Unknown
8:55 PM 62.6 °F - 59.0 °F 88% 30.04 in 10.0 mi SSE 9.2 mph - N/A Rain Light Rain
9:15 PM 62.6 °F - 59.0 °F 88% 30.04 in 10.0 mi South 11.5 mph 16.1 mph N/A   Unknown
9:35 PM 62.6 °F - 59.0 °F 88% 30.04 in 10.0 mi SSE 11.5 mph 17.3 mph N/A   Unknown
9:55 PM 60.8 °F - 59.0 °F 94% 30.02 in 10.0 mi SSE 10.4 mph - N/A   Unknown
10:15 PM 62.6 °F - 59.0 °F 88% 30.02 in 10.0 mi SSE 9.2 mph - N/A   Unknown
10:35 PM 62.6 °F - 59.0 °F 88% 30.01 in 10.0 mi SSE 9.2 mph - N/A   Unknown
10:55 PM 62.6 °F - 59.0 °F 88% 30.01 in 10.0 mi SSE 9.2 mph - N/A   Unknown
11:15 PM 62.6 °F - 59.0 °F 88% 30.01 in 10.0 mi SSE 9.2 mph - N/A   Unknown
11:35 PM 62.6 °F - 59.0 °F 88% 30.01 in 10.0 mi South 11.5 mph - N/A   Unknown
11:55 PM 60.8 °F - 57.2 °F 88% 30.00 in 10.0 mi South 9.2 mph - N/A   Unknown